Station 45142 - Port Colborne Image indicating link to RSS feed of recent meteorological observations for station 45142

Data from this station are not quality controlled by NDBC


Conditions at 45142 as of
(4:00 am EDT)
0800 GMT on 05/29/2024:
     

Click on the graph icon in the table below to see a time series plot of the last five days of that observation.

5-day plot - Wind Direction Wind Direction (WDIR): W ( 260 deg true )
5-day plot - Wind Speed Wind Speed (WSPD): 3.9 kts
5-day plot - Wind Gust Wind Gust (GST): 5.8 kts
5-day plot - Wave Height Wave Height (WVHT): 1.3 ft
5-day plot - Dominant Wave Period Dominant Wave Period (DPD): 4 sec
5-day plot - Atmospheric Pressure Atmospheric Pressure (PRES):29.92 in
5-day plot - Pressure Tendency Pressure Tendency (PTDY):-0.00 in ( Falling )
5-day plot - Air Temperature Air Temperature (ATMP): 57.6 °F
5-day plot - Water Temperature Water Temperature (WTMP): 58.1 °F
5-day plot -  Wind Speed, Wind Gust and Atmospheric Pressure Combined plot of Wind Speed, Gust, and Air Pressure

Data from this station are not quality controlled by NDBC

Previous observations
TIME
(EDT)
5-day plot - Wind Direction
WDIR
 
5-day plot - Wind Speed
WSPD
kts
5-day plot - Wind Gust
GST
kts
5-day plot - Wave Height
WVHT
ft
5-day plot - Dominant Wave Period
DPD
sec
5-day plot - Average Wave Period
APD
sec
5-day plot - Mean Wave Direction
MWD
 
5-day plot - Atmospheric Pressure
PRES
in
5-day plot - Pressure Tendency
PTDY
in
5-day plot - Air Temperature
ATMP
°F
5-day plot - Water Temperature
WTMP
°F
5-day plot - Dew Point
DEWP
°F
5-day plot - Salinity
SAL
psu
5-day plot - Visibility
VIS
nmi
5-day plot - Tide (above MLLW)
TIDE
ft
2024-05-29 03:00 am W 7.8 7.8 1.3 4--29.92-0.01 57.4 58.1----
2024-05-29 02:00 amWSW 7.8 7.8 1.6 4--29.92-0.01 57.4 58.1----
2024-05-29 01:00 am SW 5.8 7.8 1.6 4--29.93-0.01 57.0 58.1----
2024-05-29 12:00 am W 9.7 11.7 2.0 4--29.93+0.01 56.5 58.1----
2024-05-28 11:00 pmWSW 7.8 9.7 2.0 4--29.93+0.03 55.8 58.3----
2024-05-28 10:00 pmWNW 9.7 11.7 2.3 4--29.94+0.05 56.7 58.3----
2024-05-28 09:00 pmWSW 7.8 9.7 2.3 4--29.91+0.04 57.9 58.3----
2024-05-28 08:00 pm SW 9.7 11.7 2.6 4--29.90+0.05 57.6 58.3----
2024-05-28 07:00 pmWSW 9.7 11.7 2.6 4--29.89+0.04 57.9 58.3----
2024-05-28 06:00 pm W 13.6 17.5 2.6 4--29.88+0.04 57.9 58.3----
2024-05-28 05:00 pmWSW 15.5 17.5 3.0 4--29.85+0.03 58.5 58.3----
2024-05-28 04:00 pmWSW 17.5 21.4 3.0 4--29.84+0.03 57.9 58.3----
2024-05-28 03:00 pmWSW 15.5 19.4 3.0 5--29.83+0.02 58.1 58.3----
2024-05-28 02:00 pmWSW 13.6 17.5 3.0 5--29.82+0.02 57.9 58.3----
2024-05-28 01:00 pmWSW 15.5 17.5 3.0 5--29.82+0.04 58.8 58.3----
2024-05-28 12:00 pmWSW 15.5 17.5 3.3 5--29.81+0.05 58.8 58.3----
2024-05-28 11:00 amWSW 15.5 17.5 3.3 5--29.80+0.06 58.8 58.1----
2024-05-28 10:00 amWSW 13.6 15.5 3.6 5--29.78+0.05 58.6 58.1----
2024-05-28 09:00 amWSW 15.5 17.5 3.3 5--29.76+0.05 58.5 58.1----
2024-05-28 08:00 amWSW 15.5 19.4 3.6 6--29.74+0.05 58.6 57.9----
2024-05-28 07:00 amWSW 13.6 15.5 3.6 6--29.73+0.06 58.5 57.9----
2024-05-28 06:00 amWSW 11.7 13.6 4.3 5--29.71+0.05 58.3 57.9----
2024-05-28 05:00 amWSW 17.5 19.4 4.6 5--29.69+0.03 58.1 57.9----
2024-05-28 04:00 amWSW 21.4 23.3 4.9 5--29.66+0.00 58.5 57.9----